STARLINK-2041 (47657 NORAD) Tracking and Keplerian Element Data

This shows tracking and keplerian element data for the satellite.

Feedback or suggestion? Click here.




ElementValue
Catalog47657
NameSTARLINK-2041
Epoch Orbit175
Epoch Day105.91667824
Epoch Year2021
RAAN181.7233
Inclination53.0542
Eccentricity0.0001446
Argument of Perigee69.026
Mean Anonmoly253.1066
Mean Motion15.06413426
Decay Rate-0.00027178
L11 47657U 21012AP 21105.91667824 -.00027178 00000-0 -18120-2 0 9998
L22 47657 53.0542 181.7233 0001446 69.0260 253.1066 15.06413426 1751

Live tracking and technical data element details for STARLINK-2041 (NORAD 47657). STARLINK-2041 can be tracked NOW for your location showing map with azimuth and elevation plus other details from your city location.

Track the satellite on the map from your city or location and see movement details for azimuth, elevation, latitude, longitude, range, height, and movement on the map or in text.







IsCatalogInMostPopularTable: catalog: 47657, numindb: 22
Update: records affected: 1



GetName: 47657 STARLINK-2041

Hit Count: updated at: Fri, 16 Apr 2021 11:43:51 GMT